Simultaneous Nadir Overpasses (SNOs) Predictions

Prediction of SNOs between GOES-16 and AQUA Satellite Orbit:

Table of predicted SNOs for the next 14.0 days since TLE Epoch: 2/5/2022
Index Date Time (GOES-16) GOES-16 Lat,Lon AQUA Lat,Lon Distance(km) Time Diff (sec)
1 02/05/2022 06:24:03 -0.06, -75.19 -0.70, -72.31 328.24 80
2 02/05/2022 18:45:25 0.06, -75.19 -0.43, -77.49 261.02 80
3 02/07/2022 18:35:51 0.06, -75.20 0.19, -74.51 77.31 80
4 02/09/2022 18:23:37 0.06, -75.20 0.83, -71.54 416.14 80
5 02/10/2022 06:44:52 -0.06, -75.20 0.27, -76.69 169.92 80
6 02/12/2022 06:29:58 -0.05, -75.21 -0.38, -73.72 169.47 80
7 02/12/2022 18:51:21 0.05, -75.21 -0.73, -78.91 419.56 80
8 02/14/2022 18:39:06 0.04, -75.23 -0.11, -75.93 79.42 80
9 02/16/2022 18:29:31 0.03, -75.25 0.52, -72.95 261.48 80
10 02/17/2022 06:50:46 -0.03, -75.25 0.57, -78.10 323.65 80
